Home   Weather   Breda   Past weeks

Flag for Netherlands Past Weather in Breda, Netherlands — Yesterday and Last 2 Weeks

Now
55 °F

Overcast.


Feels Like: 55 °F
Forecast: 47 / 62 °F
Wind: 5 mph from South

Location: Gilze-Rijen

Current Time: Oct 1, 2016 at 3:30:07 AM

Latest Report: Oct 1, 2016 at 2:55 AM


Visibility: N/A

Pressure: 29.83 "Hg

Humidity: 82%

Dew Point: 50 °F

Location of BredaLocation

Past Weather in Breda — Graph

°F

Breda Temperature Yesterday

Maximum temperature yesterday: 66 °F (at 3:55 PM)
Minimum temperature yesterday: 54 °F (at 8:55 PM)
Average temperature yesterday: 58 °F

High & Low Weather Summary for the Past Weeks

 TemperatureHumidityPressure
High77 °F (Sep 24, 4:25 PM)100% (Sep 16, 2:55 AM)30.30 "Hg (Sep 16, 2:55 AM)
Low41 °F (Sep 27, 7:25 AM)39% (Sep 24, 4:25 PM)29.83 "Hg (Sep 16, 5:55 PM)
Average60 °F78%30.09 "Hg
* Reported Sep 16 1:25 AM — Oct 1 1:55 AM, Breda, Weather by CustomWeather, © 2016

Note: Actual official high and low records may vary slightly from our data, if they occured in-between our weather recording intervals... More about our weather records

Advertising

Breda Weather History for the Previous 24 Hours

Scroll right to see more
 ConditionsComfort  
Time TempWeatherWind HumidityBarometerVisibility
1:55 AM
Sat, Oct 1
55 °FMostly cloudy.5 mph82%29.86 "HgN/A
1:25 AM55 °FMostly cloudy.7 mph82%29.86 "HgN/A
12:55 AM55 °FOvercast.5 mph82%29.89 "HgN/A
12:25 AM54 °FOvercast.5 mph88%29.89 "HgN/A
11:55 PM
Fri, Sep 30
54 °FMostly cloudy.3 mph88%29.89 "HgN/A
11:25 PM54 °FOvercast.5 mph88%29.89 "HgN/A
10:55 PM55 °FMostly cloudy.5 mph82%29.92 "HgN/A
10:25 PM55 °FMostly cloudy.2 mph82%29.92 "HgN/A
9:55 PM54 °FOvercast.3 mph88%29.92 "HgN/A
9:25 PM54 °FOvercast.3 mph88%29.92 "HgN/A
8:55 PM54 °FOvercast.1 mph82%29.92 "HgN/A
8:25 PM55 °FMostly cloudy.3 mph82%29.92 "HgN/A
7:55 PM57 °FOvercast.6 mph77%29.92 "HgN/A
7:25 PM57 °FPassing clouds.5 mph72%29.92 "HgN/A
6:55 PM59 °FHigh level clouds.7 mph68%29.92 "HgN/A
6:25 PM63 °FPartly sunny.8 mph59%29.92 "HgN/A
5:55 PM64 °FScattered clouds.5 mph52%29.92 "HgN/A
5:25 PM64 °FScattered clouds.7 mph52%29.92 "HgN/A
4:55 PM64 °FScattered clouds.8 mph52%29.92 "HgN/A
4:25 PM64 °FBroken clouds.10 mph49%29.95 "HgN/A
4:02 PM66 °FBroken clouds.10 mph46%29.95 "HgN/A
3:55 PM66 °FPassing clouds.9 mph46%29.95 "HgN/A
3:25 PM64 °FScattered clouds.13 mph52%29.95 "HgN/A
3:04 PM64 °FBroken clouds.10 mph52%29.95 "HgN/A
2:55 PM64 °FPartly sunny.12 mph56%29.95 "HgN/A
2:25 PM64 °FPassing clouds.10 mph56%29.95 "HgN/A
1:55 PM63 °FOvercast.13 mph59%29.95 "HgN/A
1:25 PM61 °FOvercast.8 mph68%29.95 "HgN/A
12:55 PM61 °FOvercast.10 mph68%29.95 "HgN/A
12:25 PM61 °FOvercast.9 mph72%29.95 "HgN/A
11:55 AM61 °FMore clouds than sun.9 mph72%29.95 "HgN/A
11:25 AM59 °FOvercast.8 mph77%29.95 "HgN/A
10:55 AM59 °FOvercast.9 mph77%29.95 "HgN/A
10:25 AM57 °FMore clouds than sun.7 mph88%29.92 "HgN/A
9:55 AM57 °FBroken clouds.7 mph88%29.92 "HgN/A
9:25 AM55 °FMore clouds than sun.7 mph94%29.92 "HgN/A
8:55 AM55 °FOvercast.8 mph94%29.92 "HgN/A
8:25 AM55 °FOvercast.7 mph94%29.92 "HgN/A
7:56 AM55 °FFog.5 mph94%29.92 "Hg5 mi
7:25 AM55 °FFog.8 mph94%29.89 "Hg6 mi
6:55 AM55 °FMostly cloudy.6 mph94%29.89 "HgN/A
6:25 AM55 °FFog.6 mph94%29.89 "Hg6 mi
5:55 AM55 °FMostly cloudy.6 mph94%29.89 "HgN/A
5:25 AM55 °FFog.5 mph94%29.89 "Hg6 mi
4:55 AM55 °FFog.6 mph94%29.89 "Hg6 mi
4:25 AM55 °FOvercast.6 mph94%29.92 "HgN/A
3:55 AM55 °FOvercast.6 mph100%29.92 "HgN/A
3:25 AM55 °FMostly cloudy.6 mph100%29.92 "HgN/A
Weather by CustomWeather, © 2016

See weather overviewHow to use our weather pages